Lexington Weather

Lexington, Massachusetts, USA

32°F
12/8/2019 4:21pm 
  • Lexington Conditions: Mostly cloudy
  • Temperature: 32.4°F / 0.2°CColder 1.0°F than last hour.
  • Dew Point: 18.0°FIncreased 2.2°Fsince last hour.
  • Relative Humidity: 55%Increased 7.0% since last hour.
  • Wind: Wind from SSW SSW 1 mph, 10-min avg: 2 mph, gust: 5 mph
  • Barometer: 30.41 in Steady
  • Visibility: 10 miles
  • Snow Today: 0.0 in
  •   

Regional Weather Roundup
for Boston / Norton, MA

        
000
ASUS41 KBOX 060301
RWRBOX

REGIONAL WEATHER ROUNDUP
NATIONAL WEATHER SERVICE BOSTON/NORTON MA
1000 PM EST THU DEC 05 2019

NOTE:  "FAIR" INDICATES FEW OR NO CLOUDS BELOW 12,000 FEET WITH NO 
SIGNIFICANT WEATHER AND/OR OBSTRUCTIONS TO VISIBILITY.

MAZALL-060400-
EASTERN MASSACHUSETTS
  
CITY           SKY/WX    TMP DP  RH WIND       PRES   REMARKS
BOSTON         FAIR      35  18  49 W17G25    29.89R WCI  25          
BEVERLY        FAIR      33  15  47 NW15G23   29.87R WCI  23          
LAWRENCE       FAIR      31  14  49 W9G18     29.90R WCI  23          
BEDFORD        MOCLDY    32  17  54 W9G20     29.89R WCI  24          
BLUE HILL        N/A     28  17  63 W17G26    29.85R WCI  16          
NORWOOD        MOCLDY    34  16  47 W10       29.90R WCI  26          
MARSHFIELD     NOT AVBL                                               
PLYMOUTH       FAIR      32  18  56 W13       29.89R WCI  22          
TAUNTON        FAIR      33  16  49 W9        29.91R WCI  25          
NEW BEDFORD    FAIR      33  17  51 W16       29.91R WCI  23          
$$

MAZALL-060400-
CAPE COD AND THE ISLANDS
  
CITY           SKY/WX    TMP DP  RH WIND       PRES   REMARKS
FALMOUTH       PTCLDY    32  18  55 NW17G31   29.88R WCI  21          
HYANNIS        NOT AVBL                                               
CHATHAM        FAIR      35  18  49 W9G25     29.88R WCI  28          
PROVINCETOWN   MOCLDY    36  23  59 W21G29    29.87R WCI  25          
NANTUCKET      MOCLDY    36  18  48 W21G31    29.90R WCI  25          
MARTHAS VNYRD  FAIR      35  17  47 NW16G36   29.92R WCI  25          
$$
 
MAZALL-060400-
CENTRAL AND WESTERN MASSACHUSETTS
  
CITY           SKY/WX    TMP DP  RH WIND       PRES   REMARKS
WORCESTER      CLOUDY    27  14  58 NW17G26   29.87R WCI  14          
FITCHBURG      MOCLDY    30  14  51 NW14G25   29.91R WCI  19          
ORANGE         CLOUDY    30  14  51 NW13      29.92R WCI  20          
SPRINGFIELD    PTCLDY    29  15  55 NW12      29.94R WCI  19          
WESTFIELD      FAIR      31  16  54 NW17      29.95R WCI  19          
NORTH ADAMS    MOCLDY    27  14  58 W15G23    29.95R WCI  15          
PITTSFIELD     MIX PCPN  26  15  63 W26G39    29.91R WCI  10          
$$
 
RIZALL-060400-
RHODE ISLAND
  
CITY           SKY/WX    TMP DP  RH WIND       PRES   REMARKS
PROVIDENCE     FAIR      33  17  51 NW20G25   29.93R WCI  21          
NEWPORT        CLOUDY    35  19  52 NW14G22   29.93R WCI  26          
BLOCK ISLAND   CLOUDY    36  20  52 NW18G33   29.95R WCI  26          
SMITHFIELD     FAIR      30  17  58 NW15G25   29.91R WCI  19          
WESTERLY       CLOUDY    37  19  48 VRB6      29.96R                  
$$
 
CTZALL-060400-
CONNECTICUT
  
CITY           SKY/WX    TMP DP  RH WIND       PRES   REMARKS
BRADLEY INTL   MOCLDY    35  18  49 NW15G26   29.97R WCI  25          
HARTFORD       CLOUDY    35  20  54 NW9       29.98R WCI  28          
BRIDGEPORT     MOCLDY    36  22  56 W8G17     30.01R WCI  30          
DANBURY        CLOUDY    34  21  59 NW5       30.00R WCI  30          
GROTON         NOT AVBL                                               
NEW HAVEN      CLOUDY    39  24  55 W8        29.99R                  
CHESTER        MOCLDY    34  19  55 NW8G17    29.96R WCI  27          
MERIDEN        MOCLDY    34  20  56 NW8       29.99R WCI  27          
WILLIMANTIC    CLOUDY    33  19  56 NW12      29.97R WCI  24          
OXFORD         CLOUDY    32  22  66 NW7       29.97R WCI  26          
$$

MEZ002-015-021-024-NHZ003-005-008-011-012-014-VTZ005-008-060400-
NORTHERN NEW ENGLAND
  
CITY           SKY/WX    TMP DP  RH WIND       PRES   REMARKS
PORTLAND ME    MOCLDY    35  20  54 NW13      29.82R WCI  26          
BANGOR ME      CLOUDY    31  23  72 VRB3      29.73R                  
CONCORD NH     MOCLDY    28  14  55 NW12      29.88R WCI  18          
MANCHESTER NH  FAIR      30  14  51 W9        29.87R WCI  22          
NASHUA NH      FAIR      30  16  56 W10       29.90R WCI  21          
PORTSMOUTH NH  MOCLDY    33  15  49 W16G25    29.83R WCI  22          
JAFFREY NH     FAIR      26  12  55 VRB7      29.87R WCI  18          
KEENE NH       CLOUDY    28  15  58 NW8       29.93R WCI  20          
BURLINGTON VT  FLURRIES  27  14  58 W14G21    29.95R WCI  16          
MT. WASHINGTON SNOWSHWR   1   1 100 W53G59      N/A  VSB 1/16WCI -30  
$$

NYZ052-076-060400-
EASTERN NEW YORK
  
CITY           SKY/WX    TMP DP  RH WIND       PRES   REMARKS
ALBANY         MOCLDY    30  17  58 W6        30.02R WCI  24          
NEW YORK CITY  MOCLDY    39  21  48 NW16G30   30.05R WCI  30          
$$
 
ANZALL-060400-
MARINE OBSERVATIONS
  
STATION/POSITION TIME  TEMP    WIND        PRES    VSBY  WAVE
                       AIR SEA DIR/SP/G                  HT/PER
                 (UTC) (F)     (DEG/KT/KT) (MB)    (MI)  (FT/S)
BOSTON BUOY      0150   37 48  290/ 25/ 29 1009.2          4/ 4
BUZZARDS BAY     0200   36     300/ 34/ 38 1012.6R
NANTUCKET SOUND  0240      44                N/A           3/ 5
MASS BAY-STELLWA 0204   37 46  310/ 19/ 23 1008.4R  1 7/8  3/ 4
ISLE OF SHOALS   0200   36     290/ 26/ 30 1008.7R
S OF BLOCK IS    0230      50                N/A           8/ 6
$$

......................KEY.........................
  SKY/WX - SKY CONDITION/PRESENT WEATHER
  TMP    - TEMPERATURE IN FAHRENHEIT
  DWPT   - DEWPOINT IN FAHRENHEIT
  RH     - RELATIVE HUMIDITY IN PERCENT
  WIND   - DIRECTION AND SPEED IN MPH
  PRES   - MEAN SEA LEVEL PRESSURE IN INCHES OF HG
  WCI    - WIND CHILL INDEX
  VSB    - VISIBILITY IN MILES
  HX     - HEAT INDEX
  TC     - TEMPERATURE IN CELSIUS
  VRB    - VARIABLE WIND DIRECTION
  N/A    - NOT AVAILABLE
  
      

Other recent Regional Weather Roundups

Sun Dec 8, 4:10pm

Sun Dec 8, 4:01pm

Sun Dec 8, 3:10pm

Sun Dec 8, 3:01pm

Sun Dec 8, 2:10pm

Sun Dec 8, 2:01pm

Sun Dec 8, 1:10pm

Sun Dec 8, 1:00pm

Sun Dec 8, 12:10pm

Sun Dec 8, 12:01pm

Sun Dec 8, 11:10am

Sun Dec 8, 11:00am

Sun Dec 8, 10:10am

Sun Dec 8, 10:01am

Sun Dec 8, 9:10am

Sun Dec 8, 9:00am

Sun Dec 8, 8:10am

Sun Dec 8, 8:00am

Sun Dec 8, 7:10am

Sun Dec 8, 7:00am

Sun Dec 8, 6:10am

Sun Dec 8, 6:00am

Sun Dec 8, 5:10am

Sun Dec 8, 5:00am

Sun Dec 8, 4:10am

Sun Dec 8, 4:00am

Sun Dec 8, 3:10am

Sun Dec 8, 3:00am

Sun Dec 8, 2:10am

Sun Dec 8, 2:00am

Sun Dec 8, 1:10am

Sun Dec 8, 1:00am

Sun Dec 8, 12:10am

Sun Dec 8, 12:01am

Sat Dec 7, 11:10pm

Sat Dec 7, 11:00pm

Sat Dec 7, 10:10pm

Sat Dec 7, 10:00pm

Sat Dec 7, 9:10pm

Sat Dec 7, 9:00pm

Sat Dec 7, 8:10pm

Sat Dec 7, 8:00pm

Sat Dec 7, 7:10pm

Sat Dec 7, 7:00pm

Sat Dec 7, 6:10pm

Sat Dec 7, 6:00pm

Sat Dec 7, 5:10pm

Sat Dec 7, 5:00pm

Sat Dec 7, 4:10pm

Sat Dec 7, 4:00pm

Sat Dec 7, 3:10pm

Sat Dec 7, 3:00pm

Sat Dec 7, 2:10pm

Sat Dec 7, 2:01pm

Sat Dec 7, 1:10pm

Sat Dec 7, 1:00pm

Sat Dec 7, 12:10pm

Sat Dec 7, 12:01pm

Sat Dec 7, 11:10am

Sat Dec 7, 11:00am

Sat Dec 7, 10:10am

Sat Dec 7, 10:01am

Sat Dec 7, 9:10am

Sat Dec 7, 9:00am

Sat Dec 7, 8:10am

Sat Dec 7, 8:00am

Sat Dec 7, 7:10am

Sat Dec 7, 7:00am

Sat Dec 7, 6:10am

Sat Dec 7, 6:00am

Sat Dec 7, 5:10am

Sat Dec 7, 5:00am

Sat Dec 7, 4:10am

Sat Dec 7, 4:00am

Sat Dec 7, 3:10am

Sat Dec 7, 3:00am

Sat Dec 7, 2:10am

Sat Dec 7, 2:01am

Sat Dec 7, 1:10am

Sat Dec 7, 1:00am

Sat Dec 7, 12:10am

Sat Dec 7, 12:01am

Fri Dec 6, 11:10pm

Fri Dec 6, 11:00pm

Fri Dec 6, 10:10pm

Fri Dec 6, 10:00pm

Fri Dec 6, 9:10pm

Fri Dec 6, 9:00pm

Fri Dec 6, 8:10pm

Fri Dec 6, 8:00pm

Fri Dec 6, 7:10pm

Fri Dec 6, 7:01pm

Fri Dec 6, 6:10pm

Fri Dec 6, 6:00pm

Fri Dec 6, 5:10pm

Fri Dec 6, 5:00pm

Fri Dec 6, 4:10pm

Fri Dec 6, 4:00pm

Fri Dec 6, 3:10pm

Fri Dec 6, 3:00pm

Fri Dec 6, 2:10pm

Fri Dec 6, 2:00pm

Fri Dec 6, 1:10pm

Fri Dec 6, 1:00pm

Fri Dec 6, 12:10pm

Fri Dec 6, 12:00pm

Fri Dec 6, 11:10am

Fri Dec 6, 11:00am

Fri Dec 6, 10:10am

Fri Dec 6, 10:00am

Fri Dec 6, 9:10am

Fri Dec 6, 9:00am

Fri Dec 6, 8:10am

Fri Dec 6, 8:00am

Fri Dec 6, 7:10am

Fri Dec 6, 7:00am

Fri Dec 6, 6:10am

Fri Dec 6, 6:01am

Fri Dec 6, 5:10am

Fri Dec 6, 5:00am

Fri Dec 6, 4:10am

Fri Dec 6, 4:00am

Fri Dec 6, 3:10am

Fri Dec 6, 3:00am

Fri Dec 6, 2:10am

Fri Dec 6, 2:00am

Fri Dec 6, 1:10am

Fri Dec 6, 1:00am

Fri Dec 6, 12:10am

Fri Dec 6, 12:00am

Thu Dec 5, 11:10pm

Thu Dec 5, 11:00pm

Thu Dec 5, 10:10pm

Thu Dec 5, 9:10pm

Thu Dec 5, 9:01pm

Thu Dec 5, 8:10pm

Thu Dec 5, 8:00pm

Thu Dec 5, 7:10pm

Thu Dec 5, 7:00pm

Thu Dec 5, 6:10pm

Thu Dec 5, 6:00pm

Thu Dec 5, 5:10pm

Thu Dec 5, 5:00pm

Meta data:

ID: 88674140-71c1-4eac-a13a-3bc2f7e73084
Link: https://api.weather.gov/products/88674140-71c1-4eac-a13a-3bc2f7e73084